FW1075 Weather Reports


time (UTC)temp
C
wind
direction
speed
KPH
gust
KPH
rain 1hr
cm
rain 24hr
cm
rain mn
cm
humidity
%
barometer
mb
20260503005125 12 281 4.8 11.3 0.00 0.00 0.00 51 1008.7
20260503004121 13 290 4.8 12.9 0.00 0.00 0.00 53 1008.5
20260503003146 13 1 3.2 9.7 0.00 0.00 0.00 53 1008.5
20260503002123 13 77 4.8 9.7 0.00 0.00 0.00 51 1008.4
20260503001122 13 240 3.2 6.4 0.00 0.00 0.00 50 1008.4
20260503000122 13 355 4.8 9.7 0.00 0.00 0.00 49 1008.4
20260502235142 14 309 3.2 6.4 0.00 0.00 0.00 48 1008.4
20260502234121 14 5 4.8 9.7 0.00 0.00 0.00 47 1008.2
20260502233125 14 315 4.8 6.4 0.00 0.00 0.00 47 1008.1
20260502232126 15 270 4.8 9.7 0.00 0.00 0.00 47 1008.1
20260502231121 15 288 4.8 9.7 0.00 0.00 0.00 46 1008.0
20260502230123 15 324 4.8 11.3 0.00 0.00 0.00 46 1008.0
20260502225122 16 314 4.8 9.7 0.00 0.00 0.00 45 1008.0
20260502224122 16 327 4.8 6.4 0.00 0.00 0.00 44 1007.9
20260502223124 16 321 8.0 11.3 0.00 0.00 0.00 45 1008.0
20260502222122 17 330 4.8 11.3 0.00 0.00 0.00 45 1007.9
20260502221122 17 309 4.8 8.0 0.00 0.00 0.00 43 1007.9
20260502220126 16 352 4.8 8.0 0.00 0.00 0.00 46 1007.9
20260502215122 16 123 4.8 8.0 0.00 0.00 0.00 49 1007.8
20260502214122 17 295 6.4 11.3 0.00 0.00 0.00 44 1007.8
20260502213122 17 320 6.4 11.3 0.00 0.00 0.00 44 1007.8
20260502212122 17 315 6.4 9.7 0.00 0.00 0.00 45 1007.7
20260502211121 17 346 8.0 12.9 0.00 0.00 0.00 46 1007.6
20260502210122 18 286 6.4 12.9 0.00 0.00 0.00 46 1007.5
20260502205121 19 319 8.0 19.3 0.00 0.00 0.00 43 1007.5
20260502204142 18 318 6.4 11.3 0.00 0.00 0.00 42 1007.5
20260502203143 17 308 6.4 11.3 0.00 0.00 0.00 46 1007.6
20260502202122 17 311 6.4 9.7 0.00 0.00 0.00 44 1007.9
20260502201142 19 290 6.4 11.3 0.00 0.00 0.00 42 1008.0
20260502200121 20 277 6.4 12.9 0.00 0.00 0.00 42 1008.0
20260502195121 19 244 4.8 11.3 0.00 0.00 0.00 45 1008.2
20260502194142 18 277 6.4 14.5 0.00 0.00 0.00 46 1008.2
20260502193142 19 245 4.8 8.0 0.00 0.00 0.00 46 1008.5
20260502192122 18 317 8.0 12.9 0.00 0.00 0.00 49 1008.7
20260502191122 19 345 6.4 11.3 0.00 0.00 0.00 49 1008.8
20260502190122 16 259 4.8 8.0 0.00 0.00 0.00 53 1008.8
20260502185122 16 321 4.8 9.7 0.00 0.00 0.00 54 1008.9
20260502184121 16 298 6.4 11.3 0.00 0.00 0.00 56 1009.1
20260502183122 16 262 4.8 9.7 0.00 0.00 0.00 57 1009.2
20260502182143 16 268 4.8 6.4 0.00 0.00 0.00 58 1009.2
20260502181122 16 331 4.8 8.0 0.00 0.00 0.00 59 1009.2
20260502180124 16 284 4.8 11.3 0.00 0.00 0.00 62 1009.2
20260502170121 15 302 4.8 11.3 0.00 0.00 0.00 69 1009.8
20260502164123 15 343 4.8 8.0 0.00 0.00 0.00 68 1010.0
20260502163125 15 329 4.8 8.0 0.00 0.00 0.00 69 1009.9
20260502162121 15 328 4.8 9.7 0.00 0.00 0.00 72 1009.8
20260502161121 14 290 6.4 11.3 0.00 0.00 0.00 75 1010.0
20260502160121 14 314 6.4 9.7 0.00 0.00 0.00 76 1010.0
20260502152126 14 286 3.2 4.8 0.00 0.00 0.00 77 1010.1
20260502151124 14 351 4.8 9.7 0.00 0.00 0.00 77 1010.2
20260502150121 13 82 4.8 8.0 0.00 0.00 0.00 79 1010.2
20260502140125 12 310 3.2 8.0 0.00 0.00 0.00 83 1010.2
20260502130121 12 118 3.2 4.8 0.00 0.00 0.00 84 1010.4
20260502123142 12 63 3.2 6.4 0.00 0.00 0.00 86 1010.2
20260502122142 11 104 3.2 6.4 0.00 0.00 0.00 91 1010.2
20260502121122 11 101 4.8 6.4 0.00 0.00 0.00 92 1010.2
20260502120122 11 103 4.8 8.0 0.00 0.00 0.00 93 1010.4
20260502115122 11 104 3.2 6.4 0.00 0.00 0.00 94 1010.4
20260502114123 11 306 3.2 6.4 0.00 0.00 0.00 96 1010.5
20260502113142 10 306 3.2 6.4 0.00 0.00 0.00 96 1010.4
20260502112121 10 320 3.2 4.8 0.00 0.00 0.00 97 1010.2
20260502111121 10 324 3.2 6.4 0.00 0.00 0.00 98 1009.8
20260502110142 10 60 3.2 8.0 0.00 0.00 0.00 99 1009.8
20260502105121 10 64 3.2 6.4 0.00 0.00 0.00 99 1009.6
20260502104121 10 108 1.6 6.4 0.00 0.00 0.00 99 1009.6
20260502103122 10 115 3.2 4.8 0.00 0.00 0.00 99 1009.8
20260502102121 10 299 1.6 4.8 0.00 0.00 0.00 99 1009.7
20260502101143 10 270 0.0 0.0 0.00 0.00 0.00 98 1009.9
20260502100143 10 232 1.6 3.2 0.00 0.00 0.00 97 1009.9
20260502091121 10 242 3.2 6.4 0.00 0.00 0.00 92 1009.7
20260502090121 11 215 3.2 6.4 0.00 0.00 0.00 91 1009.7
20260502071125 11 236 3.2 9.7 0.00 0.00 0.00 89 1009.8
20260502070121 10 254 3.2 8.0 0.00 0.00 0.00 89 1009.8
20260502065122 10 235 3.2 6.4 0.00 0.00 0.00 89 1009.8
20260502064121 10 204 3.2 6.4 0.00 0.00 0.00 89 1009.9
20260502063124 10 250 3.2 6.4 0.00 0.00 0.00 89 1010.0
20260502062122 10 231 1.6 4.8 0.00 0.00 0.00 89 1010.0
20260502061122 10 196 3.2 6.4 0.00 0.00 0.00 87 1010.2
20260502060124 10 191 1.6 4.8 0.00 0.00 0.00 87 1010.2
20260502055124 10 186 1.6 3.2 0.00 0.00 0.00 86 1010.1
20260502054122 10 196 0.0 3.2 0.00 0.00 0.00 84 1010.1
20260502053122 11 227 1.6 4.8 0.00 0.00 0.00 83 1009.9
20260502052123 11 227 3.2 6.4 0.00 0.00 0.00 82 1010.1
20260502051121 11 246 1.6 6.4 0.00 0.00 0.00 81 1009.9
20260502050121 11 201 1.6 4.8 0.00 0.00 0.00 81 1009.9
20260502045121 11 242 3.2 8.0 0.00 0.00 0.00 81 1009.9
20260502044121 11 234 3.2 6.4 0.00 0.00 0.00 81 1010.0
20260502043122 11 220 4.8 9.7 0.00 0.00 0.00 81 1010.2
20260502042142 11 253 4.8 9.7 0.00 0.00 0.00 83 1010.2
20260502041121 11 247 4.8 9.7 0.00 0.00 0.00 84 1010.2
20260502040123 11 234 3.2 11.3 0.00 0.00 0.00 88 1010.1
20260502035122 11 176 3.2 6.4 0.00 0.00 0.00 91 1010.1
20260502034122 10 215 3.2 4.8 0.00 0.00 0.00 93 1010.0
20260502033123 10 175 1.6 4.8 0.00 0.00 0.00 95 1010.0
20260502032123 10 183 1.6 4.8 0.00 0.00 0.00 96 1010.2
20260502031123 10 181 1.6 4.8 0.00 0.00 0.00 97 1010.4
20260502030122 10 206 1.6 4.8 0.00 0.00 0.00 97 1010.5
20260502025121 10 172 1.6 4.8 0.00 0.00 0.00 98 1010.5
20260502024122 10 188 1.6 4.8 0.00 0.00 0.00 97 1010.5
20260502023142 10 208 3.2 4.8 0.00 0.00 0.00 96 1010.5
20260502022144 10 202 3.2 4.8 0.00 0.00 0.00 95 1010.4
20260502021123 10 182 1.6 3.2 0.00 0.00 0.00 95 1010.5
20260502020122 10 249 3.2 8.0 0.00 0.00 0.00 94 1010.5
20260502015122 10 200 3.2 8.0 0.00 0.00 0.00 93 1010.5
20260502014122 10 200 1.6 4.8 0.00 0.00 0.00 91 1010.2
20260502013123 10 211 3.2 4.8 0.00 0.00 0.00 90 1010.2
20260502012121 10 222 3.2 8.0 0.00 0.00 0.00 88 1010.2
20260502011121 10 225 3.2 6.4 0.00 0.00 0.00 86 1010.0
20260502010142 11 203 3.2 9.7 0.00 0.00 0.00 85 1010.0